TimeCST,TemperatureF,Dew PointF,Humidity,Sea Level PressureIn,VisibilityMPH,Wind Direction,Wind SpeedMPH,Gust SpeedMPH,PrecipitationIn,Events,Conditions,WindDirDegrees,DateUTC
12:53 AM,37.9,21.9,53,30.20,10.0,NE,5.8,-,N/A,,Overcast,50,2013-02-21 06:53:00
1:53 AM,37.0,21.0,52,30.16,10.0,East,6.9,-,N/A,,Overcast,100,2013-02-21 07:53:00
2:53 AM,37.0,21.9,54,30.16,10.0,East,6.9,-,N/A,,Overcast,80,2013-02-21 08:53:00
3:53 AM,37.0,23.0,57,30.14,10.0,East,9.2,-,N/A,,Overcast,80,2013-02-21 09:53:00
4:53 AM,37.0,23.0,57,30.14,10.0,East,10.4,-,N/A,,Overcast,80,2013-02-21 10:53:00
5:53 AM,37.0,23.0,57,30.14,10.0,ENE,9.2,-,N/A,,Overcast,70,2013-02-21 11:53:00
6:53 AM,37.0,23.0,57,30.14,10.0,East,9.2,-,N/A,,Overcast,90,2013-02-21 12:53:00
7:53 AM,39.0,21.9,50,30.13,10.0,ESE,10.4,-,N/A,,Overcast,110,2013-02-21 13:53:00
8:53 AM,39.9,21.9,49,30.12,10.0,ESE,5.8,-,N/A,,Overcast,120,2013-02-21 14:53:00
9:53 AM,44.1,23.0,43,30.06,10.0,SE,11.5,-,N/A,,Overcast,140,2013-02-21 15:53:00
10:53 AM,50.0,24.1,36,30.01,10.0,South,11.5,-,N/A,,Partly Cloudy,180,2013-02-21 16:53:00
11:53 AM,53.6,24.8,33,29.96,10.0,South,13.8,21.9,N/A,,Mostly Cloudy,170,2013-02-21 17:53:00
12:53 PM,53.1,27.0,37,29.84,10.0,SSE,15.0,21.9,N/A,,Mostly Cloudy,160,2013-02-21 18:53:00
1:31 PM,53.6,28.4,38,29.86,10.0,South,9.2,20.7,N/A,Thunderstorm,Thunderstorm,180,2013-02-21 19:31:00
1:39 PM,53.6,28.4,38,29.87,10.0,SSW,11.5,-,N/A,Thunderstorm,Thunderstorm,200,2013-02-21 19:39:00
1:53 PM,50.0,35.1,57,29.90,5.0,West,4.6,-,0.00,Rain-Thunderstorm,Light Thunderstorms and Rain,260,2013-02-21 19:53:00
1:57 PM,48.2,37.4,66,29.90,1.8,WSW,3.5,-,0.04,Rain-Thunderstorm,Heavy Thunderstorms and Rain,250,2013-02-21 19:57:00
2:06 PM,46.4,39.2,76,29.89,2.0,SSW,4.6,-,0.11,Rain,Light Rain,210,2013-02-21 20:06:00
2:13 PM,48.2,39.2,71,29.84,9.0,SE,9.2,-,0.11,Rain,Light Rain,130,2013-02-21 20:13:00
2:20 PM,46.4,39.2,76,29.86,10.0,SSE,5.8,-,0.12,Rain,Light Rain,160,2013-02-21 20:20:00
2:27 PM,48.2,41.0,76,29.85,8.0,SE,3.5,-,0.13,Rain-Thunderstorm,Thunderstorms and Rain,140,2013-02-21 20:27:00
2:51 PM,46.4,41.0,81,29.84,2.0,SSE,10.4,-,0.26,Rain-Thunderstorm,Heavy Thunderstorms and Rain,160,2013-02-21 20:51:00
2:53 PM,46.0,41.0,83,29.84,2.0,SSE,9.2,-,0.27,Rain-Thunderstorm,Thunderstorms and Rain,160,2013-02-21 20:53:00
3:08 PM,44.6,41.0,87,29.86,4.0,Calm,Calm,-,0.08,Rain-Thunderstorm,Thunderstorms and Rain,0,2013-02-21 21:08:00
3:20 PM,44.6,41.0,87,29.85,6.0,SSE,5.8,-,0.11,Rain,Light Rain,150,2013-02-21 21:20:00
3:40 PM,44.6,42.8,93,29.90,10.0,NNW,6.9,18.4,0.11,Rain,Light Rain,340,2013-02-21 21:40:00
3:53 PM,45.0,42.1,90,29.86,4.0,ESE,5.8,-,0.17,Rain,Rain,110,2013-02-21 21:53:00
4:15 PM,44.6,42.8,93,29.85,7.0,East,6.9,-,0.04,Rain-Thunderstorm,Light Thunderstorms and Rain,100,2013-02-21 22:15:00
4:29 PM,44.6,42.8,93,29.85,9.0,East,5.8,-,0.05,Rain,Light Rain,90,2013-02-21 22:29:00
4:53 PM,46.0,43.0,89,29.85,5.0,SE,9.2,-,0.13,Rain-Thunderstorm,Light Rain,140,2013-02-21 22:53:00
5:12 PM,46.4,42.8,87,29.84,10.0,ESE,5.8,-,0.00,,Overcast,120,2013-02-21 23:12:00
5:42 PM,46.4,42.8,87,29.85,10.0,East,4.6,-,0.00,,Mostly Cloudy,100,2013-02-21 23:42:00
5:53 PM,46.0,43.0,89,29.84,10.0,SE,8.1,-,0.00,,Overcast,130,2013-02-21 23:53:00
6:53 PM,46.9,44.1,90,29.86,3.0,South,19.6,25.3,0.12,Rain,Heavy Rain,180,2013-02-22 00:53:00
6:57 PM,46.4,44.6,93,29.85,3.0,South,16.1,29.9,0.03,Rain,Heavy Rain,170,2013-02-22 00:57:00
7:22 PM,46.4,44.6,93,29.83,6.0,South,10.4,21.9,0.19,Rain,Rain,180,2013-02-22 01:22:00
7:48 PM,46.4,44.6,93,29.80,10.0,SSE,12.7,-,0.23,,Overcast,160,2013-02-22 01:48:00
7:53 PM,46.9,45.0,93,29.80,10.0,SSE,12.7,-,0.23,,Overcast,160,2013-02-22 01:53:00
8:44 PM,48.2,46.4,93,29.82,10.0,South,8.1,-,N/A,,Overcast,180,2013-02-22 02:44:00
8:53 PM,50.0,46.9,89,29.82,10.0,South,9.2,-,N/A,,Overcast,180,2013-02-22 02:53:00
9:53 PM,50.0,48.0,93,29.84,10.0,South,11.5,-,N/A,,Overcast,170,2013-02-22 03:53:00
10:53 PM,51.1,48.9,92,29.86,9.0,SSW,8.1,-,N/A,,Overcast,200,2013-02-22 04:53:00
11:14 PM,51.8,50.0,94,29.87,4.0,SW,5.8,-,0.00,Rain,Light Rain,220,2013-02-22 05:14:00
11:53 PM,52.0,50.0,93,29.89,5.0,SW,5.8,-,0.01,,Overcast,230,2013-02-22 05:53:00